Regional Weather Roundup
Issued by NWS

Home | Current Version | Previous Version | Graphics & Text | Print | Product List | Glossary On
Versions: 1 2 3 4 5 6 7 8 9 10 11 12 13 14 15 16 17 18 19 20 21 22 23 24 25 26 27 28 29 30 31 32 33 34 35 36 37 38 39 40 41 42 43 44 45 46 47 48 49 50
994
ASUS44 KLIX 241805
RWRLA
LOUISIANA WEATHER ROUNDUP
NATIONAL WEATHER SERVICE NEW ORLEANS LA
1200 PM CST MON NOV 24 2014

NOTE: "FAIR" INDICATES FEW OR NO CLOUDS BELOW 12,000 FEET WITH NO
      SIGNIFICANT WEATHER AND/OR OBSTRUCTIONS TO VISIBILITY.
      SKY/WX - SKY CONDITION AND SIGNIFICANT WEATHER.
      TMP - AIR TEMPERATURE.    DP   - DEWPOINT TEMPERATURE.
      RH  - RELATIVE HUMIDITY.  PRES - PRESSURE.
      HX  - HEAT INDEX.         WCI  - WIND CHILL INDEX.

*  THESE STATIONS ARE NOT NWS OR FAA STATIONS AND ARE NOT UNDER
   NWS QUALITY CONTROL.

LAZ040-048-061>063-065-066-069-241900-
SOUTHEAST LOUISIANA

CITY           SKY/WX    TMP DP  RH WIND       PRES   REMARKS
N.O. AUDUBON     N/A     70  55  59 MISG        N/A
6HR MIN TEMP:  64; 6HR MAX TEMP:  72;

N.O. INTL ARPT PTSUNNY   69  52  54 NW14      29.89F
6HR MIN TEMP:  65; 6HR MAX TEMP:  69;

N.O. LAKEFRONT SUNNY     63  55  75 NW10      29.89F
6HR MIN TEMP:  60; 6HR MAX TEMP:  65;

N.O. DOWNTOWN* FAIR      70  52  52 N8        29.89F
6HR MIN TEMP:  66; 6HR MAX TEMP:  72;

SLIDELL        SUNNY     71  51  49 VRB7      29.86F
6HR MIN TEMP:  66; 6HR MAX TEMP:  72;

BATON ROUGE    SUNNY     63  45  51 N9        29.93F
6HR MIN TEMP:  57; 6HR MAX TEMP:  64;

BOOTHVILLE     MOSUNNY   72  64  76 NW13      29.88R
6HR MIN TEMP:  66; 6HR MAX TEMP:  74;

BELLE CHASSE   PTSUNNY   71  52  50 N10G17    29.87F
6HR MIN TEMP:  66; 6HR MAX TEMP:  72;

BOGALUSA*        N/A     69  48  46 N12       29.90F
6HR MIN TEMP:  63; 6HR MAX TEMP:  69;

NEW ROADS*     FAIR      61  45  54 NW15      29.95F
6HR MIN TEMP:  54; 6HR MAX TEMP:  61;

GONZALES*      FAIR      65  48  53 NW10      29.91F
6HR MIN TEMP:  60; 6HR MAX TEMP:  65;

HAMMOND*       MOSUNNY   68  48  49 NW13      29.91F
HOUMA*         SUNNY     72  54  53 NW16      29.88F
PORT FOURCHON* CLEAR     72  61  68 N9        29.91S

$$

LAZ041-044-053-054-241900-
SOUTHWEST LOUISIANA

CITY           SKY/WX    TMP DP  RH WIND       PRES   REMARKS
LAKE CHARLES   SUNNY     62  43  49 N15       29.98F
6HR MIN TEMP:  52; 6HR MAX TEMP:  62;

LAFAYETTE      SUNNY     62  44  51 N13       29.94F
6HR MIN TEMP:  56; 6HR MAX TEMP:  63;

PATTERSON      MOSUNNY   66  50  55 N10       29.93F
6HR MIN TEMP:  61; 6HR MAX TEMP:  66;

SALT POINT       N/A     71  51  49 N8        29.90F
NEW IBERIA     MOSUNNY   64  46  52 N14       29.94F
6HR MIN TEMP:  58; 6HR MAX TEMP:  64;

CHENAULT AIRPK SUNNY     61  43  51 N13G20    29.99F

$$

LAZ027-028-241900-
CENTRAL LOUISIANA

CITY           SKY/WX    TMP DP  RH WIND       PRES   REMARKS
FORT POLK      NOT AVBL
ALEXANDRIA INT SUNNY     61  34  36 N15       29.97F
6HR MIN TEMP:  49; 6HR MAX TEMP:  61;

ALEXANDRIA     SUNNY     62  36  37 VRB6      29.98F
6HR MIN TEMP:  50; 6HR MAX TEMP:  62;


$$

LAZ001-002-241900-
NORTHWEST LOUISIANA

CITY           SKY/WX    TMP DP  RH WIND       PRES   REMARKS
SHREVEPORT     MOSUNNY   59  31  34 NW13      30.01F
6HR MIN TEMP:  47; 6HR MAX TEMP:  60;

BARKSDALE AFB  SUNNY     59  32  36 NW18      30.01F
6HR MIN TEMP:  46; 6HR MAX TEMP:  59;

DTN SHREVEPORT SUNNY     58  31  35 NW9G20    30.01F
6HR MIN TEMP:  46; 6HR MAX TEMP:  58;


$$

LAZ014-016-241900-
NORTHEAST LOUISIANA

CITY           SKY/WX    TMP DP  RH WIND       PRES   REMARKS
MONROE         SUNNY     59  35  40 N10       29.98F
6HR MIN TEMP:  49; 6HR MAX TEMP:  59;

TALLULAH       SUNNY     59  38  45 NW10G17   29.97F
6HR MIN TEMP:  50; 6HR MAX TEMP:  60;


$$




USA.gov is the U.S. government's official web portal to all federal, state and local government web resources and services.